Terminal Aerodrome Forecast
Issued by NWS

Home | Current Version | Previous Version | Text Only | Print | Product List | Glossary On
Versions: 1 2 3 4 5 6 7 8 9 10 11 12 13 14 15 16 17 18 19 20 21 22 23 24 25 26 27 28 29 30 31 32 33 34 35 36 37 38 39 40 41 42 43 44 45 46 47 48 49 50
000
FTUS45 KVEF 231720
TAFLAS
TAF
KLAS 231720Z 2318/2424 11008KT P6SM FEW100 BKN200
     FM232000 21013G22KT P6SM FEW100 SCT200
     FM240400 22011KT P6SM FEW100
     FM240900 22006KT P6SM FEW100
     FM241800 06006KT P6SM SCT250=

USA.gov is the U.S. government's official web portal to all federal, state and local government web resources and services.